WZZ5627 LIBD-LIPX

Flight info

Callsign WZZ5627
Flight time 1h 6m
Altitude 36000
Route PISIP DCT VIE DCT VAPUP DCT BAXON DCT ARDAM DCT KOPER L614 OSTEG
Aircraft A321/M-SDE3FGHIRWY/LB1

Departure

Time 2026-05-05 09:36
Airport Bari Karol Wojtyła International Airport (LIBD)

Arrival

Time 2026-05-05 10:43
Airport Verona Villafranca Valerio Catullo Airport (LIPX)
Time Latitude Longitude Altitude Speed Heading
2026-05-05 09:17 41.13513 16.76293 159 ft 0 kts 159°
2026-05-05 09:27 41.13525 16.76286 159 ft 4 kts 159°
2026-05-05 09:27 41.13549 16.76274 161 ft 2 kts 159°
2026-05-05 09:28 41.13571 16.76268 159 ft 4 kts 202°
2026-05-05 09:28 41.13587 16.76289 159 ft 4 kts 247°
2026-05-05 09:28 41.13590 16.76298 159 ft 0 kts 249°
2026-05-05 09:31 41.13588 16.76292 159 ft 2 kts 249°
2026-05-05 09:31 41.13582 16.76271 159 ft 3 kts 249°
2026-05-05 09:31 41.13572 16.76234 159 ft 5 kts 249°
2026-05-05 09:32 41.13557 16.76181 159 ft 7 kts 250°
2026-05-05 09:32 41.13558 16.76112 158 ft 8 kts 290°
2026-05-05 09:32 41.13601 16.76055 158 ft 10 kts 317°
2026-05-05 09:32 41.13632 16.75975 158 ft 12 kts 273°
2026-05-05 09:33 41.13607 16.75862 158 ft 13 kts 248°
2026-05-05 09:33 41.13572 16.75742 158 ft 14 kts 249°
2026-05-05 09:33 41.13536 16.75613 158 ft 15 kts 250°
2026-05-05 09:33 41.13497 16.75476 158 ft 16 kts 250°
2026-05-05 09:34 41.13456 16.75330 158 ft 17 kts 248°
2026-05-05 09:34 41.13413 16.75177 158 ft 18 kts 249°
2026-05-05 09:34 41.13366 16.75018 158 ft 19 kts 249°
2026-05-05 09:34 41.13350 16.74873 157 ft 15 kts 290°
2026-05-05 09:35 41.13414 16.74746 152 ft 17 kts 322°
2026-05-05 09:35 41.13485 16.74760 148 ft 10 kts 66°
2026-05-05 09:35 41.13606 16.75192 149 ft 88 kts 69°
2026-05-05 09:36 41.13899 16.76228 150 ft 149 kts 70°
2026-05-05 09:36 41.14285 16.77659 530 ft 165 kts 73°
2026-05-05 09:36 41.14677 16.79079 1313 ft 164 kts 73°
2026-05-05 09:36 41.15077 16.80499 2048 ft 165 kts 72°
2026-05-05 09:37 41.15497 16.81992 2366 ft 182 kts 71°
2026-05-05 09:37 41.15968 16.83667 2588 ft 206 kts 72°
2026-05-05 09:37 41.16500 16.85560 2868 ft 231 kts 72°
2026-05-05 09:37 41.17093 16.87657 3211 ft 253 kts 71°
2026-05-05 09:38 41.17729 16.89886 3858 ft 261 kts 71°
2026-05-05 09:38 41.18661 16.91966 4577 ft 269 kts 43°
2026-05-05 09:38 41.20329 16.93112 5181 ft 279 kts
2026-05-05 09:38 41.22276 16.93013 5830 ft 285 kts 346°
2026-05-05 09:39 41.24192 16.92271 6604 ft 287 kts 339°
2026-05-05 09:39 41.26064 16.91336 7355 ft 289 kts 337°
2026-05-05 09:39 41.27951 16.90388 8120 ft 291 kts 338°
2026-05-05 09:39 41.29869 16.89494 8901 ft 293 kts 340°
2026-05-05 09:40 41.31819 16.88663 9688 ft 295 kts 341°
2026-05-05 09:40 41.33793 16.87881 10360 ft 302 kts 342°
2026-05-05 09:40 41.35873 16.87000 10525 ft 324 kts 336°
2026-05-05 09:40 41.37934 16.85587 10709 ft 342 kts 324°
2026-05-05 09:41 41.39796 16.83567 11206 ft 348 kts 313°
2026-05-05 09:41 41.41424 16.81158 11858 ft 351 kts 309°
2026-05-05 09:41 41.43047 16.78709 12532 ft 354 kts 309°
2026-05-05 09:41 41.44688 16.76238 13206 ft 357 kts 309°
2026-05-05 09:42 41.46346 16.73742 13870 ft 361 kts 309°
2026-05-05 09:42 41.48015 16.71225 14471 ft 364 kts 309°
2026-05-05 09:42 41.49695 16.68687 15103 ft 366 kts 309°
2026-05-05 09:42 41.51384 16.66131 15729 ft 369 kts 309°
2026-05-05 09:43 41.53088 16.63551 16355 ft 371 kts 309°
2026-05-05 09:43 41.54801 16.60956 16979 ft 374 kts 309°
2026-05-05 09:43 41.56522 16.58340 17596 ft 376 kts 309°
2026-05-05 09:43 41.58260 16.55705 18212 ft 379 kts 311°
2026-05-05 09:44 41.60302 16.53444 18731 ft 385 kts 323°
2026-05-05 09:44 41.62535 16.51444 19281 ft 387 kts 324°
2026-05-05 09:44 41.64757 16.49469 19840 ft 389 kts 324°
2026-05-05 09:44 41.67041 16.47444 20421 ft 390 kts 324°
2026-05-05 09:45 41.69280 16.45459 20984 ft 392 kts 324°
2026-05-05 09:45 41.71555 16.43439 21534 ft 394 kts 324°
2026-05-05 09:45 41.73843 16.41399 22077 ft 395 kts 324°
2026-05-05 09:45 41.76135 16.39350 22599 ft 397 kts 324°
2026-05-05 09:46 41.78436 16.37292 23100 ft 399 kts 324°
2026-05-05 09:46 41.80749 16.35217 23588 ft 401 kts 324°
2026-05-05 09:46 41.83079 16.33121 24002 ft 403 kts 323°
2026-05-05 09:46 41.85417 16.31016 24411 ft 405 kts 323°
2026-05-05 09:47 41.87766 16.28902 24803 ft 407 kts 323°
2026-05-05 09:47 41.90124 16.26779 25198 ft 409 kts 323°
2026-05-05 09:47 41.92482 16.24655 25586 ft 411 kts 323°
2026-05-05 09:47 41.94864 16.22513 25966 ft 413 kts 323°
2026-05-05 09:48 41.97261 16.20358 26350 ft 415 kts 323°
2026-05-05 09:48 41.99672 16.18187 26734 ft 417 kts 323°
2026-05-05 09:48 42.02086 16.16011 27112 ft 419 kts 322°
2026-05-05 09:48 42.04479 16.13847 27478 ft 420 kts 322°
2026-05-05 09:49 42.06912 16.11641 27844 ft 422 kts 322°
2026-05-05 09:49 42.09354 16.09426 28212 ft 424 kts 322°
2026-05-05 09:49 42.11808 16.07198 28564 ft 425 kts 322°
2026-05-05 09:49 42.14272 16.04965 28934 ft 427 kts 322°
2026-05-05 09:50 42.16744 16.02725 29264 ft 429 kts 322°
2026-05-05 09:50 42.18382 16.01240 29506 ft 430 kts 321°
2026-05-05 09:50 42.20875 15.98976 29857 ft 431 kts 321°
2026-05-05 09:50 42.23367 15.96706 30203 ft 433 kts 321°
2026-05-05 09:51 42.26677 15.93684 30650 ft 432 kts 321°
2026-05-05 09:51 42.28358 15.92151 30969 ft 430 kts 321°
2026-05-05 09:51 42.30837 15.89891 31443 ft 427 kts 320°
2026-05-05 09:51 42.34079 15.86930 32053 ft 423 kts 320°
2026-05-05 09:52 42.35723 15.85422 32372 ft 421 kts 320°
2026-05-05 09:52 42.38139 15.83202 32842 ft 418 kts 320°
2026-05-05 09:52 42.40518 15.81020 33302 ft 415 kts 319°
2026-05-05 09:52 42.42907 15.78830 33724 ft 413 kts 319°
2026-05-05 09:53 42.45282 15.76653 34126 ft 411 kts 319°
2026-05-05 09:53 42.47649 15.74481 34455 ft 410 kts 319°
2026-05-05 09:53 42.50012 15.72308 34761 ft 411 kts 319°
2026-05-05 09:53 42.52373 15.70132 35026 ft 411 kts 319°
2026-05-05 09:54 42.54751 15.67937 35279 ft 412 kts 320°
2026-05-05 09:54 42.57122 15.65747 35532 ft 413 kts 320°
2026-05-05 09:54 42.59493 15.63551 35785 ft 413 kts 320°
2026-05-05 09:54 42.61876 15.61342 36000 ft 415 kts 320°
2026-05-05 09:55 42.66622 15.56950 36047 ft 414 kts 320°
2026-05-05 09:55 42.71400 15.52528 36063 ft 415 kts 320°
2026-05-05 09:56 42.76140 15.48118 36051 ft 415 kts 320°
2026-05-05 09:56 42.80924 15.43647 36058 ft 416 kts 320°
2026-05-05 09:57 42.85686 15.39209 36066 ft 417 kts 320°
2026-05-05 09:57 42.90488 15.34732 36053 ft 418 kts 320°
2026-05-05 09:58 42.95297 15.30226 36061 ft 419 kts 320°
2026-05-05 09:58 43.00102 15.25712 36067 ft 419 kts 320°
2026-05-05 09:59 43.04889 15.21201 36063 ft 419 kts 319°
2026-05-05 09:59 43.09262 15.15999 36070 ft 416 kts 313°
2026-05-05 10:00 43.13561 15.10649 36067 ft 417 kts 313°
2026-05-05 10:00 43.17831 15.05330 36061 ft 418 kts 313°
2026-05-05 10:01 43.22138 14.99947 36052 ft 419 kts 313°
2026-05-05 10:01 43.26453 14.94551 36049 ft 420 kts 313°
2026-05-05 10:02 43.30757 14.89168 36053 ft 421 kts 314°
2026-05-05 10:02 43.35086 14.83734 36056 ft 421 kts 314°
2026-05-05 10:03 43.39414 14.78283 36061 ft 422 kts 314°
2026-05-05 10:03 43.43752 14.72805 36060 ft 423 kts 314°
2026-05-05 10:04 43.48071 14.67354 36064 ft 423 kts 314°
2026-05-05 10:04 43.52417 14.61851 36064 ft 424 kts 314°
2026-05-05 10:05 43.56765 14.56335 36063 ft 425 kts 314°
2026-05-05 10:05 43.61116 14.50808 36062 ft 425 kts 314°
2026-05-05 10:06 43.65469 14.45269 36062 ft 426 kts 314°
2026-05-05 10:06 43.69829 14.39691 36060 ft 426 kts 314°
2026-05-05 10:07 43.74189 14.34114 36061 ft 427 kts 314°
2026-05-05 10:07 43.78553 14.28531 36061 ft 427 kts 314°
2026-05-05 10:08 43.82889 14.22957 36062 ft 428 kts 314°
2026-05-05 10:08 43.87251 14.17329 36064 ft 428 kts 314°
2026-05-05 10:09 43.91628 14.11684 36061 ft 429 kts 314°
2026-05-05 10:09 43.96008 14.06032 36060 ft 430 kts 314°
2026-05-05 10:10 44.00355 14.00407 36061 ft 430 kts 314°
2026-05-05 10:10 44.04733 13.94718 36062 ft 430 kts 314°
2026-05-05 10:11 44.09109 13.89020 36063 ft 430 kts 314°
2026-05-05 10:11 44.13487 13.83317 36065 ft 431 kts 314°
2026-05-05 10:12 44.17863 13.77608 36065 ft 431 kts 313°
2026-05-05 10:12 44.22211 13.71917 36067 ft 431 kts 313°
2026-05-05 10:13 44.26586 13.66159 36072 ft 431 kts 313°
2026-05-05 10:13 44.30521 13.59934 36065 ft 423 kts 295°
2026-05-05 10:14 44.32864 13.52462 36053 ft 422 kts 290°
2026-05-05 10:14 44.35138 13.44893 36054 ft 422 kts 290°
2026-05-05 10:15 44.37409 13.37320 36060 ft 423 kts 290°
2026-05-05 10:15 44.39689 13.29716 36061 ft 423 kts 290°
2026-05-05 10:16 44.41961 13.22108 36061 ft 423 kts 290°
2026-05-05 10:16 44.44222 13.14511 36055 ft 423 kts 290°
2026-05-05 10:17 44.46482 13.06904 35853 ft 423 kts 290°
2026-05-05 10:17 44.47608 13.03106 35603 ft 422 kts 289°
2026-05-05 10:17 44.48729 12.99311 35351 ft 423 kts 289°
2026-05-05 10:18 44.49852 12.95501 35099 ft 423 kts 289°
2026-05-05 10:18 44.50976 12.91684 34871 ft 424 kts 289°
2026-05-05 10:18 44.52103 12.87856 34627 ft 425 kts 289°
2026-05-05 10:18 44.53227 12.84025 34387 ft 426 kts 289°
2026-05-05 10:19 44.54357 12.80180 34152 ft 427 kts 289°
2026-05-05 10:19 44.55486 12.76332 33636 ft 429 kts 289°
2026-05-05 10:19 44.56629 12.72430 32867 ft 432 kts 289°
2026-05-05 10:19 44.57747 12.68618 32455 ft 427 kts 289°
2026-05-05 10:20 44.58871 12.64779 31945 ft 424 kts 289°
2026-05-05 10:20 44.59983 12.60967 31450 ft 421 kts 289°
2026-05-05 10:20 44.61085 12.57179 30956 ft 418 kts 289°
2026-05-05 10:20 44.62180 12.53413 30452 ft 416 kts 289°
2026-05-05 10:21 44.63269 12.49659 29949 ft 414 kts 289°
2026-05-05 10:21 44.64345 12.45936 29428 ft 411 kts 289°
2026-05-05 10:21 44.65414 12.42231 28938 ft 407 kts 289°
2026-05-05 10:21 44.66472 12.38556 28461 ft 404 kts 289°
2026-05-05 10:22 44.67524 12.34909 27980 ft 402 kts 289°
2026-05-05 10:22 44.68567 12.31280 27502 ft 399 kts 288°
2026-05-05 10:22 44.69601 12.27678 27038 ft 396 kts 288°
2026-05-05 10:22 44.70628 12.24094 26572 ft 395 kts 288°
2026-05-05 10:23 44.71652 12.20507 26114 ft 396 kts 288°
2026-05-05 10:23 44.72676 12.16927 25665 ft 394 kts 288°
2026-05-05 10:23 44.73696 12.13363 25221 ft 392 kts 288°
2026-05-05 10:23 44.74712 12.09819 24794 ft 390 kts 288°
2026-05-05 10:24 44.75723 12.06288 24350 ft 389 kts 288°
2026-05-05 10:24 44.76729 12.02768 23939 ft 387 kts 288°
2026-05-05 10:24 44.77727 11.99260 23507 ft 385 kts 288°
2026-05-05 10:24 44.78717 11.95770 23047 ft 382 kts 288°
2026-05-05 10:25 44.79695 11.92315 22631 ft 379 kts 288°
2026-05-05 10:25 44.80667 11.88876 22202 ft 376 kts 288°
2026-05-05 10:25 44.81625 11.85473 21783 ft 372 kts 288°
2026-05-05 10:25 44.82574 11.82101 21362 ft 368 kts 288°
2026-05-05 10:26 44.83515 11.78763 20936 ft 365 kts 288°
2026-05-05 10:26 44.84446 11.75459 20503 ft 361 kts 288°
2026-05-05 10:26 44.85366 11.72179 20066 ft 358 kts 288°
2026-05-05 10:26 44.86278 11.68925 19637 ft 356 kts 288°
2026-05-05 10:27 44.87186 11.65688 19194 ft 353 kts 288°
2026-05-05 10:27 44.88086 11.62476 18736 ft 352 kts 288°
2026-05-05 10:27 44.88984 11.59263 18289 ft 352 kts 288°
2026-05-05 10:27 44.89881 11.56044 17808 ft 353 kts 288°
2026-05-05 10:28 44.90776 11.52827 17359 ft 353 kts 288°
2026-05-05 10:28 44.91676 11.49595 16900 ft 351 kts 288°
2026-05-05 10:28 44.92565 11.46399 16467 ft 348 kts 288°
2026-05-05 10:28 44.93441 11.43243 16034 ft 344 kts 288°
2026-05-05 10:29 44.94306 11.40128 15587 ft 340 kts 288°
2026-05-05 10:29 44.95164 11.37029 15157 ft 337 kts 288°
2026-05-05 10:29 44.96012 11.33957 14733 ft 334 kts 288°
2026-05-05 10:29 44.96854 11.30912 14306 ft 331 kts 288°
2026-05-05 10:30 44.97687 11.27898 13884 ft 329 kts 288°
2026-05-05 10:30 44.98516 11.24895 13425 ft 326 kts 288°
2026-05-05 10:30 44.99333 11.21929 13002 ft 323 kts 288°
2026-05-05 10:30 45.00145 11.18977 12591 ft 319 kts 288°
2026-05-05 10:31 45.00942 11.16072 12180 ft 315 kts 288°
2026-05-05 10:31 45.01729 11.13199 11765 ft 312 kts 288°
2026-05-05 10:31 45.02246 11.11311 11510 ft 309 kts 288°
2026-05-05 10:31 45.03267 11.07575 10977 ft 305 kts 288°
2026-05-05 10:32 45.04028 11.04795 10595 ft 302 kts 288°
2026-05-05 10:32 45.04782 11.02038 10299 ft 296 kts 288°
2026-05-05 10:32 45.05513 10.99376 10187 ft 282 kts 287°
2026-05-05 10:32 45.06193 10.96902 10034 ft 259 kts 287°
2026-05-05 10:33 45.06625 10.95321 9924 ft 252 kts 287°
2026-05-05 10:33 45.07241 10.93057 9820 ft 240 kts 287°
2026-05-05 10:33 45.07818 10.90933 9598 ft 231 kts 287°
2026-05-05 10:33 45.08393 10.88805 9262 ft 226 kts 287°
2026-05-05 10:34 45.08943 10.86768 8692 ft 225 kts 287°
2026-05-05 10:34 45.09502 10.84698 8089 ft 226 kts 287°
2026-05-05 10:34 45.10042 10.82690 7568 ft 227 kts 287°
2026-05-05 10:34 45.10600 10.80611 7049 ft 225 kts 287°
2026-05-05 10:35 45.11158 10.78532 6628 ft 226 kts 288°
2026-05-05 10:35 45.11720 10.76448 6535 ft 227 kts 288°
2026-05-05 10:35 45.12284 10.74357 6495 ft 228 kts 288°
2026-05-05 10:35 45.12849 10.72264 6415 ft 227 kts 288°
2026-05-05 10:36 45.13584 10.70305 6310 ft 223 kts 306°
2026-05-05 10:36 45.14745 10.68894 6187 ft 221 kts 327°
2026-05-05 10:36 45.16186 10.68172 5847 ft 221 kts 350°
2026-05-05 10:36 45.17720 10.67974 5532 ft 221 kts 354°
2026-05-05 10:37 45.19244 10.67770 5233 ft 220 kts 355°
2026-05-05 10:37 45.20761 10.67559 4928 ft 218 kts 355°
2026-05-05 10:37 45.22266 10.67346 4619 ft 217 kts 356°
2026-05-05 10:37 45.23753 10.67394 4304 ft 211 kts 14°
2026-05-05 10:38 45.25084 10.68129 4055 ft 199 kts 34°
2026-05-05 10:38 45.26097 10.69339 3815 ft 184 kts 49°
2026-05-05 10:38 45.26967 10.70594 3594 ft 173 kts 49°
2026-05-05 10:38 45.27795 10.71788 3354 ft 166 kts 49°
2026-05-05 10:39 45.28592 10.72940 3140 ft 162 kts 48°
2026-05-05 10:39 45.29379 10.74078 2927 ft 160 kts 48°
2026-05-05 10:39 45.30151 10.75194 2733 ft 158 kts 49°
2026-05-05 10:39 45.30906 10.76285 2534 ft 148 kts 49°
2026-05-05 10:40 45.31609 10.77302 2311 ft 141 kts 49°
2026-05-05 10:40 45.32288 10.78286 2123 ft 138 kts 49°
2026-05-05 10:40 45.32952 10.79248 1939 ft 137 kts 50°
2026-05-05 10:40 45.33625 10.80224 1753 ft 136 kts 50°
2026-05-05 10:41 45.34280 10.81173 1568 ft 137 kts 49°
2026-05-05 10:41 45.34953 10.82148 1378 ft 138 kts 50°
2026-05-05 10:41 45.35623 10.83120 1185 ft 137 kts 48°
2026-05-05 10:41 45.36295 10.84087 985 ft 138 kts 48°
2026-05-05 10:42 45.37644 10.86045 557 ft 140 kts 47°
2026-05-05 10:42 45.38319 10.87032 381 ft 139 kts 47°
2026-05-05 10:42 45.38999 10.88016 246 ft 139 kts 48°
2026-05-05 10:43 45.39586 10.88880 240 ft 99 kts 44°
2026-05-05 10:43 45.39944 10.89405 242 ft 49 kts 46°
2026-05-05 10:43 45.40138 10.89686 246 ft 30 kts 46°
2026-05-05 10:43 45.40238 10.89824 246 ft 11 kts 45°
2026-05-05 10:44 45.40278 10.89919 246 ft 12 kts 78°
2026-05-05 10:44 45.40299 10.90046 245 ft 15 kts 76°
2026-05-05 10:44 45.40327 10.90201 243 ft 18 kts 75°
2026-05-05 10:44 45.40376 10.90346 242 ft 15 kts 47°
2026-05-05 10:45 45.40440 10.90440 242 ft 9 kts 43°
2026-05-05 10:45 45.40444 10.90491 242 ft 6 kts 122°
2026-05-05 10:45 45.40413 10.90535 242 ft 5 kts 135°
2026-05-05 10:45 45.40411 10.90538 242 ft 0 kts 135°